Glencoe, MN

2:45 AM CDT on May 29, 2017 (GMT -0500)
Glencoe Municipal

Weather History for KGYL - March, 2014

Change the Weather History Date:

Sunday, March 9, 2014

  Actual Average (KHCD) Record (KHCD)
Temperature  
Mean Temperature 28 °F -  
Max Temperature 42 °F 37 °F 56 °F (2015)
Min Temperature 14 °F 18 °F -13 °F (1984)
Degree Days  
Heating Degree Days 37    
Moisture  
Dew Point 24 °F    
Average Humidity 72    
Maximum Humidity 83    
Minimum Humidity 61    
Precipitation  
Precipitation 0.00 in - - ()
Sea Level Pressure  
Sea Level Pressure 29.80 in    
Wind  
Wind Speed 8 mph (SSW)    
Max Wind Speed 14 mph    
Max Gust Speed 20 mph    
Visibility 10 miles    
Events      
Averages and records for this station are not official NWS values.
T = Trace of Precipitation, MM = Missing Value Source: NWS Daily Summary

Daily Weather History Graph

Daily Weather History Graph

Search for Another Location

Airport or City:

Trip Planner

Search our weather history database for the weather conditions in past years. The results will help you decide how hot, cold, wet, or windy it might be!

Date:

Astronomy

Mar. 09, 2014 Rise Set
Actual Time 7:39 AM CDT 7:14 PM CDT
Civil Twilight 7:10 AM CDT 7:43 PM CDT
Nautical Twilight 6:36 AM CDT 8:17 PM CDT
Astronomical Twilight 6:02 AM CDT 8:52 PM CDT
Moon 12:57 PM CDT (3/9) 3:16 AM CDT (3/9)
Length of Visible Light 12h 33m
Length of Day
11h 35m
First Quarter, 61% of the Moon is Illuminated
Mar 9
First Quarter
Mar 16
Full
Mar 23
Last Quarter
Mar 30
New
Apr 7
First Quarter

Hourly Weather History & Observations

Time (CDT) Temp. Windchill Dew Point Humidity Pressure Visibility Wind Dir Wind Speed Gust Speed Precip Events Conditions
12:12 AM 14.0 °F 5.1 °F 9.7 °F 83% 30.13 in 10.0 mi South 5.8 mph - N/A   Clear
12:32 AM 14.9 °F 5.0 °F 10.4 °F 82% 30.12 in 10.0 mi South 6.9 mph - N/A   Clear
12:53 AM 14.9 °F 4.0 °F 10.4 °F 82% 30.11 in 10.0 mi South 8.1 mph - N/A   Clear
1:12 AM 14.9 °F 4.0 °F 10.4 °F 82% 30.10 in 10.0 mi South 8.1 mph - N/A   Clear
1:33 AM 15.4 °F 5.6 °F 10.8 °F 82% 30.09 in 10.0 mi South 6.9 mph - N/A   Clear
1:52 AM 15.8 °F 4.2 °F 10.9 °F 81% 30.09 in 10.0 mi South 9.2 mph - N/A   Clear
3:13 AM 15.8 °F 4.2 °F 10.9 °F 81% 30.07 in 10.0 mi South 9.2 mph - N/A   Clear
3:32 AM 16.2 °F 4.7 °F 10.9 °F 80% 30.06 in 10.0 mi South 9.2 mph - N/A   Clear
3:53 AM 16.3 °F 4.1 °F 11.1 °F 80% 30.04 in 10.0 mi South 10.4 mph - N/A   Clear
4:12 AM 17.4 °F 6.2 °F 12.0 °F 79% 30.02 in 10.0 mi South 9.2 mph 17.3 mph N/A   Clear
4:32 AM 18.5 °F 6.1 °F 12.6 °F 78% 30.00 in 10.0 mi South 11.5 mph - N/A   Clear
4:53 AM 19.6 °F 7.4 °F 13.1 °F 76% 29.99 in 10.0 mi South 11.5 mph 16.1 mph N/A   Clear
5:12 AM 20.3 °F 7.7 °F 13.8 °F 76% 29.98 in 10.0 mi South 12.7 mph - N/A   Clear
5:33 AM 20.8 °F 9.0 °F 14.0 °F 75% 29.97 in 10.0 mi South 11.5 mph - N/A   Clear
5:53 AM 21.2 °F 9.5 °F 14.2 °F 74% 29.96 in 10.0 mi South 11.5 mph - N/A   Clear
6:12 AM 22.1 °F 11.3 °F 14.7 °F 73% 29.96 in 10.0 mi South 10.4 mph - N/A   Clear
6:32 AM 22.6 °F 12.6 °F 15.1 °F 73% 29.94 in 10.0 mi South 9.2 mph - N/A   Clear
6:53 AM 23.0 °F 11.1 °F 15.6 °F 73% 29.93 in 10.0 mi South 12.7 mph 16.1 mph N/A   Clear
7:12 AM 23.4 °F 13.5 °F 15.8 °F 73% 29.91 in 10.0 mi South 9.2 mph 16.1 mph N/A   Clear
7:33 AM 23.9 °F 13.5 °F 16.2 °F 72% 29.90 in 10.0 mi South 10.4 mph - N/A   Clear
7:53 AM 23.9 °F 13.5 °F 16.3 °F 73% 29.89 in 10.0 mi South 10.4 mph - N/A   Clear
8:12 AM 24.4 °F 14.9 °F 16.5 °F 72% 29.87 in 10.0 mi South 9.2 mph 17.3 mph N/A   Clear
8:33 AM 25.3 °F 14.7 °F 16.9 °F 70% 29.86 in 10.0 mi South 11.5 mph 17.3 mph N/A   Clear
8:53 AM 26.4 °F 16.6 °F 17.6 °F 69% 29.84 in 10.0 mi South 10.4 mph - N/A   Clear
9:12 AM 27.1 °F 17.5 °F 18.3 °F 69% 29.83 in 10.0 mi South 10.4 mph 16.1 mph N/A   Clear
9:33 AM 28.2 °F 18.3 °F 19.0 °F 68% 29.82 in 10.0 mi South 11.5 mph 16.1 mph N/A   Clear
9:53 AM 29.1 °F 20.0 °F 19.9 °F 69% 29.81 in 10.0 mi South 10.4 mph - N/A   Clear
10:12 AM 30.9 °F 22.2 °F 21.0 °F 67% 29.79 in 10.0 mi South 10.4 mph - N/A   Clear
10:33 AM 32.0 °F 22.1 °F 22.3 °F 67% 29.78 in 10.0 mi South 13.8 mph 18.4 mph N/A   Clear
10:53 AM 32.9 °F 24.1 °F 23.4 °F 68% 29.77 in 10.0 mi South 11.5 mph 17.3 mph N/A   Clear
11:13 AM 34.5 °F 26.2 °F 24.4 °F 67% 29.77 in 10.0 mi South 11.5 mph 17.3 mph N/A   Clear
11:32 AM 35.8 °F 27.8 °F 25.7 °F 67% 29.75 in 10.0 mi SSW 11.5 mph 17.3 mph N/A   Clear
11:53 AM 37.2 °F 29.1 °F 26.8 °F 66% 29.74 in 10.0 mi SSW 12.7 mph - N/A   Clear
12:12 PM 38.5 °F 32.1 °F 27.3 °F 64% 29.75 in 10.0 mi SSW 9.2 mph 16.1 mph N/A   Clear
12:32 PM 39.4 °F 32.7 °F 28.0 °F 64% 29.75 in 10.0 mi SSW 10.4 mph 16.1 mph N/A   Clear
12:53 PM 40.3 °F 33.9 °F 28.4 °F 63% 29.73 in 10.0 mi SSW 10.4 mph 19.6 mph N/A   Clear
1:13 PM 40.5 °F 34.1 °F 28.6 °F 63% 29.72 in 10.0 mi SSW 10.4 mph - N/A   Clear
1:32 PM 41.2 °F 35.5 °F 28.9 °F 62% 29.71 in 10.0 mi SSW 9.2 mph - N/A   Clear
1:53 PM 41.7 °F 36.7 °F 29.1 °F 61% 29.70 in 10.0 mi SSW 8.1 mph - N/A   Clear
2:13 PM 41.9 °F 37.5 °F 29.3 °F 61% 29.70 in 10.0 mi SW 6.9 mph - N/A   Clear
2:32 PM 41.9 °F 35.9 °F 29.5 °F 61% 29.69 in 10.0 mi SSW 10.4 mph - N/A   Clear
2:53 PM 41.9 °F 36.9 °F 29.8 °F 62% 29.68 in 10.0 mi SSW 8.1 mph - N/A   Clear
3:13 PM 42.1 °F 37.1 °F 30.0 °F 62% 29.68 in 10.0 mi SSW 8.1 mph - N/A   Clear
3:32 PM 41.9 °F 37.5 °F 30.2 °F 63% 29.68 in 10.0 mi SSW 6.9 mph - N/A   Clear
3:53 PM 41.4 °F 37.6 °F 30.4 °F 65% 29.67 in 10.0 mi SW 5.8 mph - N/A   Clear
4:13 PM 41.4 °F 38.4 °F 30.7 °F 66% 29.68 in 10.0 mi SW 4.6 mph - N/A   Clear
4:32 PM 41.0 °F 38.0 °F 30.9 °F 67% 29.68 in 10.0 mi SW 4.6 mph - N/A   Clear
4:53 PM 40.6 °F 36.7 °F 31.1 °F 69% 29.67 in 10.0 mi SW 5.8 mph - N/A   Clear
5:09 PM 40.6 °F 36.7 °F 31.1 °F 69% 29.66 in 10.0 mi SSW 5.8 mph - N/A   Clear
5:32 PM 39.9 °F 36.7 °F 31.6 °F 72% 29.67 in 10.0 mi SSW 4.6 mph - N/A   Clear
5:53 PM 40.1 °F 36.9 °F 31.6 °F 72% 29.67 in 10.0 mi SW 4.6 mph - N/A   Clear
6:13 PM 40.3 °F 35.5 °F 31.8 °F 72% 29.68 in 10.0 mi SW 6.9 mph - N/A   Clear
6:33 PM 39.9 °F 37.8 °F 32.0 °F 73% 29.68 in 10.0 mi WSW 3.5 mph - N/A   Clear
6:52 PM 39.6 °F 35.4 °F 32.0 °F 74% 29.68 in 10.0 mi SW 5.8 mph - N/A   Clear
7:13 PM 39.4 °F 34.5 °F 32.0 °F 75% 29.68 in 10.0 mi SW 6.9 mph - N/A   Clear
7:33 PM 39.2 °F 35.9 °F 32.0 °F 75% 29.67 in 10.0 mi SW 4.6 mph - N/A   Clear
7:52 PM 39.7 °F 34.9 °F 32.0 °F 74% 29.68 in 10.0 mi SW 6.9 mph - N/A   Clear
8:12 PM 39.9 °F 37.8 °F 32.0 °F 73% 29.69 in 10.0 mi WSW 3.5 mph - N/A   Clear
8:33 PM 39.7 °F 36.5 °F 32.0 °F 74% 29.68 in 10.0 mi SW 4.6 mph - N/A   Clear
8:52 PM 40.3 °F 36.3 °F 32.0 °F 72% 29.68 in 10.0 mi SW 5.8 mph - N/A   Clear
9:12 PM 40.3 °F 35.5 °F 32.0 °F 72% 29.67 in 10.0 mi SW 6.9 mph - N/A   Scattered Clouds
9:32 PM 40.5 °F 36.5 °F 32.0 °F 72% 29.66 in 10.0 mi SW 5.8 mph - N/A   Mostly Cloudy
9:53 PM 39.6 °F 37.4 °F 32.0 °F 74% 29.67 in 10.0 mi WSW 3.5 mph - N/A   Overcast
10:12 PM 39.7 °F 37.6 °F 32.0 °F 74% 29.67 in 10.0 mi WSW 3.5 mph - N/A   Mostly Cloudy
10:32 PM 39.2 °F - 32.0 °F 75% 29.67 in 10.0 mi Calm Calm - N/A   Scattered Clouds
10:52 PM 39.2 °F 35.9 °F 32.0 °F 75% 29.66 in 10.0 mi SW 4.6 mph - N/A   Scattered Clouds
11:12 PM 39.7 °F 35.6 °F 32.0 °F 74% 29.66 in 10.0 mi SW 5.8 mph - N/A   Scattered Clouds
11:29 PM 40.3 °F 35.5 °F 32.0 °F 72% 29.66 in 10.0 mi SW 6.9 mph - N/A   Scattered Clouds
11:52 PM 40.1 °F 34.7 °F 32.0 °F 73% 29.65 in 10.0 mi SW 8.1 mph - N/A   Scattered Clouds
12:13 AM 40.8 °F 37.8 °F 32.5 °F 72% 29.64 in 10.0 mi SW 4.6 mph - N/A   Scattered Clouds
12:30 AM 40.5 °F 37.3 °F 32.4 °F 73% 29.64 in 10.0 mi SW 4.6 mph - N/A   Mostly Cloudy
12:52 AM 40.6 °F 36.7 °F 32.4 °F 72% 29.63 in 10.0 mi SW 5.8 mph - N/A   Scattered Clouds